Regional Weather Roundup
Issued by NWS

Home | Current Version | Previous Version | Text Only | Print | Product List | Glossary On
Versions: 1 2 3 4 5 6 7 8 9 10 11 12 13 14 15 16 17 18 19 20 21 22 23 24 25 26 27 28 29 30 31 32 33 34 35 36 37 38 39 40 41 42 43 44 45 46 47 48 49 50
000
ASUS44 KFWD 100801
RWRTX
NORTH TEXAS HOURLY WEATHER ROUNDUP
NATIONAL WEATHER SERVICE FORT WORTH TX
200 AM CST WED FEB 10 2016

NOTE: "FAIR" INDICATES FEW OR NO CLOUDS BELOW 12,000 FEET WITH NO
SIGNIFICANT WEATHER AND/OR OBSTRUCTIONS TO VISIBILITY.

TXZ118-119-100900-
DALLAS/FORT WORTH METROPLEX

CITY           SKY/WX    TMP DP  RH WIND       PRES   REMARKS
DFW AIRPORT    CLEAR     40  26  57 W5        30.33R WCI  37
DALLAS LOVE    CLEAR     42  25  50 W3        30.34R
FTW MEACHAM    CLEAR     42  25  50 CALM      30.33F
DAL-EXECUTIVE  CLEAR     39  24  55 W5        30.33R WCI  36
FTW-ALLIANCE   CLEAR     33  25  72 CALM      30.33S
FTW-NAS-JRB    CLEAR     42  31  64 CALM      30.34F
ARLINGTON      CLEAR     37  26  64 CALM      30.34R
GRAND PRAIRIE  CLEAR     43  25  49 CALM      30.36R
MESQUITE       CLEAR     39  24  53 CALM      30.34R
LANCASTER      CLEAR     35  24  63 W3        30.35R
$$

TXZ091>094-102>105-117-120-121-131>134-100900-
NORTH CENTRAL TEXAS

CITY           SKY/WX    TMP DP  RH WIND       PRES   REMARKS
SHRMAN/DENISON CLEAR     33  24  68 CALM      30.32S
GAINESVILLE    CLEAR     32  23  69 NW3       30.35R
BRIDGEPORT     CLEAR     34  27  74 CALM      30.35S
DECATUR        CLEAR     39  22  51 SW6       30.33R WCI  34
DENTON         CLEAR     31  25  78 W7        30.33S WCI  24
MCKINNEY       CLEAR     37  23  56 CALM      30.33R
ROCKWALL       CLEAR     40  24  53 N3        30.32S
TERRELL        CLEAR     39  24  55 NW3       30.34S
WAXAHACHIE     CLEAR     38  28  66 N3        30.35S
GRANBURY       CLEAR     35  28  74 CALM      30.36R
$$

TXZ083>090-098>101-113>116-127>130-139>142-154-155-100900-
WESTERN NORTH TEXAS

CITY           SKY/WX    TMP DP  RH WIND       PRES   REMARKS
WICHITA FALLS  CLEAR     34  24  67 CALM      30.33S
WF-KICKAPOO    CLEAR     38  26  62 CALM      30.35R
VERNON         CLEAR     34  24  66 W3        30.34S
ABILENE        PTCLDY    41  29  62 E7        30.32S WCI  36
ABILENE-DYESS  CLEAR     36  28  72 SE3       30.31R
MINERAL WELLS  CLEAR     36  25  64 CALM      30.32S
COMANCHE       CLEAR     43  30  61 CALM      30.34R
$$

TXZ143>147-156>162-174-175-100900-
CENTRAL TEXAS

CITY           SKY/WX    TMP DP  RH WIND       PRES   REMARKS
WACO           CLEAR     35  27  72 N3        30.35R
WACO-MCGREGOR  CLEAR     44  28  53 NE6       30.35S
HILLSBORO      CLEAR     35  22  61 CALM      30.34S
CORSICANA      CLEAR     42  25  50 CALM      30.35S
MEXIA          CLEAR     42  25  51 N5        30.34S WCI  39
HEARNE         CLEAR     46  28  50 NE3       30.35S
TEMPLE         CLEAR     42  29  59 CALM      30.35S
KILLEEN        CLEAR     43  29  57 E2        30.33R
KILLEEN-SKYLRK HAZE      42  29  59 E3        30.35R VSB 1/2
FORT HOOD      CLEAR     46  28  47 E5        30.32S
HAMILTON       CLEAR     47  28  48 E3        30.34S
$$

TXZ095>097-106>112-122>126-135>138-148>153-164>167-100900-
EAST TEXAS

CITY           SKY/WX    TMP DP  RH WIND       PRES   REMARKS
PARIS          CLEAR     36  18  48 NW7       30.30S WCI  30
MINEOLA        CLEAR     37  25  60 CALM      30.33R
TYLER          CLEAR     40  22  48 NW3       30.31S
LONGVIEW       CLEAR     38  23  55 NW5       30.30S WCI  34
PALESTINE      CLEAR     40  26  58 CALM      30.35R
JACKSONVILLE   CLEAR     43  22  43 CALM      30.33R
NACOGDOCHES    CLEAR     36  25  64 CALM      30.31S
LUFKIN         CLEAR     35  29  78 W3        30.31F
$$

SUPPLEMENTAL OBSERVATIONS (CENTRAL)

CITY           SKY/WX    TMP DP  RH WIND       PRES   REMARKS
$$

SUPPLEMENTAL OBSERVATIONS (WEST)

CITY           SKY/WX    TMP DP  RH WIND       PRES   REMARKS
$$

SUPPLEMENTAL OBSERVATIONS (EAST)

CITY           SKY/WX    TMP DP  RH WIND       PRES   REMARKS
$$

SUPPLEMENTAL OBSERVATIONS ARE A COLLECTION OF AUTOMATED INSTRUMENTS
THAT ARE MAINTAINED BY A VARIETY OF FEDERAL AND STATE AGENCIES.
CERTAIN ELEMENTS...SUCH AS HUMIDITY VALUES AND SUSTAINED WIND
SPEEDS...MAY BE APPROXIMATED.





USA.gov is the U.S. government's official web portal to all federal, state and local government web resources and services.